Theta_e
297 297 298 298 298 299 299 299 301 301 301 303 304 306 310 313 313 313 310 309 312 314 311 309 309 309 309 309 308 308 309 308 308 308 308 308 308 309 308 308 309 310 310 310 311 312 313 313 314 315 316 318 318 317 317 317 315 315 316 316 316 315 315 315 315 313 314 316 316 316 316 316 316 317 318 317 316 316 316 316 317 314 312 314 312 314 326
297 297 298 298 298 299 299 300 300 301 301 302 303 308 312 313 313 313 311 310 312 312 309 307 308 309 310 310 309 308 308 309 309 308 308 309 309 310 310 309 309 309 309 310 310 312 313 314 314 316 317 317 317 317 317 317 317 317 317 317 316 314 315 316 315 315 316 317 317 316 316 317 319 321 321 318 318 320 318 317 317 314 313 314 312 317 329
297 297 298 298 299 299 299 300 300 301 302 302 303 309 312 312 312 312 311 311 312 311 309 308 308 309 311 310 310 310 309 308 309 309 309 309 309 310 310 310 309 309 309 310 310 311 313 315 315 317 318 317 316 316 318 319 320 320 320 319 316 316 318 318 317 318 319 318 318 316 316 318 320 321 321 319 320 321 320 316 313 313 315 314 312 320 328
297 297 298 298 299 299 299 300 301 301 302 302 304 309 312 311 311 311 311 311 311 309 309 309 309 309 310 310 310 310 310 309 308 308 309 308 308 309 309 308 308 309 309 310 311 311 312 314 315 316 318 318 316 316 318 318 319 320 321 319 317 319 321 321 321 321 319 318 318 317 317 319 321 322 322 321 321 322 322 317 315 317 317 315 318 325 330
297 297 298 298 299 299 300 300 301 302 302 303 305 309 310 310 310 310 310 309 309 308 308 309 309 309 310 309 310 310 310 309 308 308 309 308 308 309 308 307 308 309 310 312 312 311 311 313 314 315 316 317 316 315 316 316 317 319 319 318 319 319 319 321 323 321 318 318 318 317 319 321 322 323 323 323 323 324 323 320 321 322 319 317 324 331 331
297 297 298 298 299 299 300 301 301 302 303 303 305 310 310 309 309 310 309 308 308 308 308 309 309 310 310 309 310 310 309 310 310 309 309 308 308 309 309 308 308 308 309 311 312 312 312 314 315 315 315 316 317 317 317 315 314 316 317 317 319 319 319 320 321 319 317 318 318 317 319 320 320 321 323 323 324 325 326 324 324 326 323 322 327 331 328
297 298 298 298 299 299 300 301 301 302 303 303 305 310 309 309 309 308 308 308 308 309 309 309 309 309 309 309 310 309 309 310 309 308 309 309 308 308 309 309 307 307 308 310 313 313 313 314 316 316 316 317 317 320 320 317 313 313 316 318 319 320 320 319 319 318 317 318 318 318 318 319 319 319 319 321 322 323 323 323 323 325 326 326 326 325 320
297 298 298 298 299 299 300 301 301 302 303 304 307 310 309 310 309 308 308 308 309 309 309 309 308 308 308 309 309 309 309 309 309 308 309 309 309 308 309 308 307 307 308 309 311 311 311 313 314 314 316 316 316 318 317 315 314 314 316 318 320 320 320 319 319 319 318 318 318 318 319 319 319 317 317 318 320 321 321 320 321 323 324 324 322 321 317
297 297 297 298 299 299 300 301 301 302 303 305 309 310 309 310 310 309 308 307 307 308 308 307 307 306 307 308 308 308 308 307 308 309 307 308 309 308 308 308 308 308 308 309 309 308 308 310 310 310 312 313 313 314 313 312 314 315 316 317 320 320 319 319 319 320 319 318 318 319 319 319 319 317 315 316 319 320 319 318 318 321 323 322 322 322 318
297 297 297 298 298 299 300 301 301 301 303 306 310 309 310 310 308 308 308 306 306 306 307 306 306 306 306 308 308 308 307 305 307 307 306 306 307 306 306 308 308 309 310 309 308 307 307 308 307 307 308 310 311 312 311 310 311 312 314 316 319 320 319 318 318 320 319 318 318 319 319 320 320 315 312 313 315 317 318 317 316 316 318 321 322 320 315
297 297 297 298 298 299 300 301 301 301 303 305 308 310 310 310 308 307 306 306 305 305 305 305 305 306 306 306 306 306 306 305 306 306 306 306 306 305 306 307 308 309 310 308 307 306 306 305 306 306 308 311 312 311 311 310 309 309 312 315 318 320 319 319 319 319 319 319 318 318 320 321 318 311 309 311 312 313 316 316 314 313 315 317 316 314 311
296 297 297 297 298 299 299 301 301 302 302 303 305 309 310 309 309 308 306 306 305 305 305 305 305 306 305 304 304 305 305 305 305 306 307 308 307 306 306 306 307 308 308 306 306 306 306 305 306 308 309 311 313 312 311 311 310 310 312 314 317 319 319 319 319 318 319 318 318 321 322 318 313 309 309 309 310 311 313 313 311 311 313 314 313 310 308
296 297 297 297 298 298 299 300 301 301 302 302 304 308 308 306 307 307 306 305 305 305 305 304 304 304 304 304 304 304 304 304 304 305 307 308 307 307 305 306 306 306 305 305 306 307 309 309 310 310 311 312 312 311 309 309 309 310 311 312 316 318 318 318 317 317 318 318 318 321 319 313 311 311 309 308 309 310 311 314 313 310 310 311 310 308 306
296 297 297 297 297 298 299 300 301 301 302 302 304 306 306 305 308 308 306 306 305 305 305 304 303 303 304 303 303 303 303 304 305 306 307 308 307 306 305 304 304 304 304 305 307 309 310 311 312 312 313 313 314 313 310 308 308 309 311 313 315 317 318 316 316 316 317 318 318 317 316 314 312 311 308 307 308 307 308 313 313 309 308 309 308 306 305
296 296 297 296 296 297 298 300 301 301 301 301 302 305 305 305 307 308 306 305 304 303 303 303 303 303 303 302 302 303 303 304 305 306 306 305 305 305 304 303 304 304 304 306 308 309 309 311 313 313 313 313 314 314 312 311 310 311 312 314 314 315 317 316 315 315 316 317 317 316 318 317 312 310 308 306 306 305 304 309 312 308 306 307 307 306 305
296 296 296 296 296 296 298 299 300 301 301 301 302 304 304 302 301 304 306 305 303 302 301 302 302 302 302 301 302 303 303 303 304 305 305 305 304 304 303 303 304 305 305 306 308 308 309 311 311 312 313 312 312 312 312 312 311 311 311 312 313 314 316 314 315 316 315 317 318 317 318 315 310 308 307 306 306 305 304 311 315 309 305 307 307 306 305
296 296 296 296 296 296 298 299 300 301 301 301 303 305 304 299 299 303 305 304 302 301 300 300 302 303 302 302 302 302 303 303 303 304 305 305 304 303 303 304 304 305 306 307 308 308 308 309 309 310 311 310 310 311 311 311 312 311 310 311 311 313 314 314 315 316 315 316 316 314 313 311 308 307 307 307 307 306 309 317 317 309 306 307 306 306 306
295 296 295 295 295 296 298 299 299 300 301 301 302 305 303 298 298 303 305 302 301 301 300 300 302 302 302 302 302 302 302 303 304 304 304 304 303 303 303 304 304 304 306 307 308 307 307 307 307 309 310 309 309 310 309 308 309 309 309 310 311 311 312 313 315 315 314 315 315 313 311 309 307 306 306 306 307 309 314 317 311 306 307 307 306 306 307
295 295 295 295 295 296 298 299 299 300 301 301 302 304 302 298 298 303 305 302 301 300 300 300 301 302 301 302 303 302 302 302 303 304 304 305 304 302 302 303 304 305 306 308 308 307 307 306 306 307 308 309 308 308 307 307 307 307 307 310 310 311 311 312 312 312 313 314 314 313 311 308 305 306 306 307 310 313 313 309 305 305 307 307 306 306 307
295 295 295 295 295 296 298 299 299 299 301 301 302 304 302 298 299 302 304 303 301 301 301 300 301 301 301 302 303 302 302 302 303 303 304 305 304 303 305 305 304 305 307 308 308 307 307 307 306 306 307 308 307 307 307 306 306 307 308 309 309 309 311 311 310 310 311 312 313 314 312 307 304 306 307 307 309 309 306 303 305 306 307 307 307 306 307
294 295 295 295 295 296 298 298 298 299 301 301 302 304 303 299 299 301 303 303 302 301 301 301 301 301 301 301 301 301 301 302 302 302 303 304 303 304 307 307 305 306 307 308 307 306 306 308 307 306 306 306 306 308 308 307 306 306 307 308 308 308 310 310 308 308 310 312 311 310 308 304 303 305 306 305 304 304 303 303 305 306 306 306 306 305 305
294 294 294 294 295 296 298 297 297 298 301 301 302 305 304 301 300 300 301 303 302 301 301 301 301 301 301 300 300 300 300 300 301 302 303 304 304 304 305 306 305 305 305 306 306 306 306 307 308 307 306 306 307 308 308 308 307 306 306 307 307 307 308 308 307 307 308 308 307 305 303 302 303 303 304 304 303 303 303 303 303 304 305 305 305 304 304
294 294 294 294 295 296 297 297 296 298 300 301 302 304 304 302 300 300 301 302 302 302 302 302 301 301 301 301 300 299 299 299 300 301 302 303 304 304 304 305 305 304 305 305 307 307 307 307 307 307 306 306 306 307 307 307 306 306 305 306 306 306 307 307 307 306 306 305 304 304 303 303 303 303 303 304 303 303 303 302 302 302 302 302 303 302 302
294 294 294 294 295 296 297 297 296 297 300 301 302 303 302 300 300 302 303 302 302 302 302 302 302 301 301 301 300 300 299 298 298 299 300 302 304 304 304 304 304 305 305 304 305 306 306 306 306 306 305 305 305 305 306 305 305 305 305 305 304 305 306 306 306 306 306 306 304 304 304 304 304 304 303 303 302 302 302 301 301 300 300 300 300 300 301
294 294 294 294 295 296 297 297 297 297 299 301 302 302 303 301 300 302 303 302 302 302 301 301 301 301 300 300 300 299 299 298 298 298 299 301 304 305 304 302 302 305 305 304 305 306 305 305 305 305 304 305 305 305 305 305 305 305 304 304 304 305 305 305 305 305 305 305 305 304 304 304 304 304 303 303 302 301 300 300 300 300 299 299 299 300 300
294 294 294 294 294 296 297 298 298 297 298 299 301 302 303 301 299 301 304 303 302 303 302 301 301 301 301 300 300 299 299 299 299 300 300 300 302 304 304 303 302 304 305 306 306 306 305 305 305 305 304 305 305 304 304 304 303 304 304 304 305 304 304 304 304 304 304 305 304 304 304 304 303 303 303 303 303 302 300 300 300 299 299 298 299 299 299
294 294 294 294 294 295 296 298 300 299 298 298 299 301 302 301 300 302 304 304 303 302 301 301 301 301 301 301 300 299 300 300 301 301 300 300 301 303 304 305 305 306 306 306 305 305 304 304 304 304 304 304 304 303 303 303 302 303 303 304 304 304 304 304 303 303 304 304 304 305 305 303 302 302 302 302 302 302 302 301 300 300 300 299 299 299 299
294 294 294 295 294 294 296 298 300 301 300 298 297 299 300 300 301 302 301 302 304 303 301 301 301 302 302 301 300 300 301 301 301 301 301 302 302 303 305 306 306 305 305 304 304 303 302 301 301 302 302 302 303 303 303 302 302 302 303 303 304 304 305 304 303 303 304 304 304 305 304 303 302 302 302 302 302 302 302 302 301 301 300 301 300 300 299
294 294 294 295 295 294 295 298 300 301 302 301 301 302 302 300 301 302 300 301 304 304 302 301 301 302 301 301 301 301 301 301 302 302 302 302 303 303 304 305 305 304 303 303 302 301 301 300 301 301 301 302 303 303 302 302 302 302 302 303 304 304 305 305 304 304 304 304 304 305 304 302 302 302 302 302 303 302 302 302 302 302 302 301 301 300 300
294 294 295 295 294 294 295 298 300 300 301 302 304 305 303 301 301 302 301 301 303 304 302 301 301 301 301 302 302 301 301 301 302 302 302 303 303 303 304 304 303 303 303 302 301 301 300 300 300 301 301 302 303 302 301 301 301 301 301 303 303 303 303 304 304 304 303 303 304 304 303 302 302 302 303 303 302 302 302 302 302 302 302 302 301 301 301
294 294 295 295 294 294 296 299 300 300 301 304 306 305 303 302 302 302 301 300 301 303 302 300 300 301 301 302 302 301 300 301 302 302 303 303 303 303 303 303 303 302 302 301 301 301 300 300 301 302 301 301 302 301 301 301 300 300 301 302 302 302 302 303 303 303 303 303 303 302 302 302 302 301 301 302 302 302 302 302 302 302 302 301 301 301 301
294 294 295 295 294 294 297 299 300 301 302 302 303 301 300 300 301 302 302 300 301 303 302 300 300 301 300 301 302 301 301 302 303 302 302 302 303 303 302 302 302 302 301 301 300 300 300 300 301 301 301 301 302 301 300 300 301 301 301 301 302 302 302 302 302 302 302 302 302 301 301 301 301 300 300 301 302 301 301 301 301 301 301 300 300 301 301
294 294 295 294 293 294 297 299 300 301 299 298 299 298 297 298 301 302 301 301 302 304 303 301 301 300 300 301 302 301 301 303 303 301 300 301 303 303 302 302 302 301 300 301 300 299 300 301 300 300 301 302 301 300 300 300 301 301 301 301 302 302 302 302 302 301 301 302 302 302 301 301 301 301 301 301 301 301 300 300 300 300 300 300 300 300 300
294 295 295 294 294 296 298 299 301 301 300 301 302 299 297 299 302 302 301 301 303 303 301 301 301 300 300 301 301 300 301 302 302 300 300 300 303 303 301 301 301 300 300 301 300 300 300 301 300 300 300 300 300 300 300 300 300 300 300 301 301 301 301 301 301 301 301 302 302 302 302 301 301 301 300 300 300 301 300 300 299 299 299 299 300 300 300
294 295 295 294 294 297 299 300 302 302 302 302 301 299 298 300 301 301 301 302 303 301 300 300 301 300 300 301 300 300 301 302 301 301 300 300 301 302 301 300 300 299 300 301 300 300 299 300 300 300 299 300 300 300 300 300 300 300 300 300 300 301 301 300 301 301 301 301 302 302 302 302 301 300 300 299 300 300 300 299 299 299 298 298 299 299 299
295 295 294 294 296 299 301 302 302 303 303 301 300 299 300 301 301 300 300 302 303 302 301 300 301 301 301 300 300 300 301 301 301 301 301 300 300 301 301 300 299 299 300 300 300 299 299 299 300 299 299 300 300 300 300 300 299 299 299 300 300 300 300 300 300 300 301 301 301 301 301 301 300 300 299 299 300 300 300 300 299 299 298 298 298 299 299
295 295 295 297 300 302 303 303 303 302 300 299 298 299 301 302 302 302 302 302 302 303 303 302 301 301 301 301 300 300 300 301 300 300 300 300 299 299 300 300 299 299 300 300 299 299 299 300 300 300 299 300 300 300 300 300 300 299 299 299 299 300 300 300 300 300 300 300 301 300 300 300 300 299 299 299 299 300 300 299 299 298 298 298 298 299 299
295 295 298 302 302 301 301 303 302 299 298 298 300 301 301 302 302 302 302 301 301 301 302 303 301 301 301 301 300 300 300 300 300 300 300 299 299 299 299 299 298 299 299 299 298 299 299 299 299 299 299 299 300 299 300 300 300 300 300 299 300 300 300 300 300 300 299 299 299 299 299 299 299 299 299 299 299 300 300 300 300 299 299 298 298 298 299
296 298 302 303 301 300 302 301 299 298 299 300 301 301 300 300 301 300 300 300 301 301 302 302 302 301 302 302 300 300 300 301 300 300 299 299 299 299 299 298 298 298 299 298 298 299 299 299 299 299 299 299 299 299 299 299 299 299 300 300 300 300 300 300 300 300 299 299 299 300 299 299 299 299 299 298 299 299 300 300 300 299 299 299 298 298 298
300 302 302 301 301 301 301 299 298 300 301 301 300 299 299 299 300 300 300 300 300 300 301 302 301 301 302 302 301 300 300 301 301 301 300 299 299 299 299 298 298 298 299 298 298 298 299 299 299 299 299 299 299 299 299 299 299 299 300 300 300 300 300 300 300 300 300 300 300 300 300 300 300 299 299 299 298 298 299 300 300 299 299 299 298 298 298
303 303 301 300 301 301 300 299 299 300 300 299 298 299 299 299 299 299 300 300 300 300 300 301 301 301 301 302 302 301 300 300 301 301 300 299 299 299 299 298 297 298 299 298 298 299 299 298 299 299 299 299 299 299 299 299 298 299 300 300 300 300 300 300 300 300 300 300 300 300 300 300 299 299 299 299 299 298 299 299 299 299 299 299 298 298 298
301 301 300 300 300 300 299 299 299 298 298 298 298 298 298 298 299 300 300 300 300 300 300 301 302 301 301 301 302 301 300 300 300 300 299 298 298 298 299 298 297 298 299 298 298 299 298 298 299 299 299 299 299 299 299 299 298 299 299 300 300 300 300 300 300 299 300 300 300 299 299 299 299 299 299 299 299 299 299 299 299 299 299 298 298 298 298
299 299 299 300 300 299 299 298 298 297 298 298 298 298 298 298 299 300 300 300 300 301 301 301 301 300 300 301 301 300 299 299 300 300 299 298 298 298 298 297 298 298 298 298 298 299 298 298 299 299 299 299 299 299 299 299 298 299 299 300 300 299 299 300 299 299 299 299 299 299 299 299 299 299 299 299 299 299 299 298 298 298 298 298 298 298 298
298 299 300 300 298 298 298 298 297 297 298 297 298 299 299 299 299 300 300 300 301 301 301 301 300 300 300 300 300 300 299 299 299 299 298 298 298 298 298 297 298 298 298 298 298 298 298 298 299 299 299 299 299 299 299 299 298 299 299 299 299 299 299 299 299 299 299 299 299 299 299 299 299 299 299 299 298 299 299 298 298 298 298 298 298 298 298
299 299 299 299 298 297 298 297 297 297 298 298 298 299 300 300 300 301 301 301 302 301 301 301 301 301 300 300 300 299 299 299 299 299 298 298 298 298 298 298 297 297 298 298 298 298 298 298 299 299 299 299 299 299 299 299 299 299 299 299 299 300 299 299 299 299 299 299 299 299 299 299 299 299 299 299 298 299 299 298 298 298 298 298 298 298 298
299 298 298 299 298 297 297 297 297 297 298 299 299 299 300 301 301 301 301 302 302 301 301 302 301 301 300 299 299 299 299 299 299 298 298 298 298 297 297 297 297 297 298 298 298 298 298 299 299 299 299 299 299 299 299 299 299 299 299 299 299 299 299 299 299 299 299 299 299 299 299 299 299 299 299 299 299 299 299 298 298 298 298 298 298 298 298
297 297 297 298 297 296 296 297 298 298 299 299 300 300 301 301 301 301 301 301 302 301 301 301 301 300 300 299 299 299 299 299 298 297 298 298 298 296 296 297 297 297 298 298 298 299 299 299 299 299 299 299 299 298 298 298 299 299 299 299 300 300 299 299 299 299 299 299 299 299 299 299 299 299 299 299 299 299 299 299 298 298 298 298 298 298 298
297 296 297 297 297 297 297 298 298 299 299 299 299 299 300 301 301 300 300 301 302 302 301 301 300 300 299 299 300 299 299 299 298 297 297 298 297 296 296 297 297 297 297 298 298 299 299 299 299 299 299 299 299 298 298 298 299 299 299 300 300 300 299 299 299 299 299 299 299 299 299 299 299 299 299 299 299 299 298 298 298 298 298 298 298 298 298
297 297 296 296 297 297 298 299 299 299 299 299 299 299 300 301 301 300 300 301 302 301 301 301 300 300 299 299 299 299 298 298 298 297 297 297 297 297 297 297 297 297 297 298 299 299 299 299 299 299 299 299 299 298 299 299 299 299 300 300 300 300 299 299 299 299 299 299 299 299 299 299 299 298 299 299 298 298 298 298 298 298 298 298 298 298 298
297 297 297 297 297 298 298 299 300 300 299 299 300 300 301 301 301 300 301 301 301 301 300 300 300 299 299 299 298 298 298 298 298 297 297 297 297 297 297 297 298 298 298 298 299 299 299 299 299 299 299 299 298 299 299 299 299 299 300 300 299 299 299 299 299 299 299 299 299 299 299 299 299 299 299 299 298 298 299 298 298 298 298 298 298 298 298
297 297 297 298 298 298 299 299 300 300 300 300 300 301 301 301 300 300 301 301 301 300 300 300 299 299 299 298 298 298 298 298 298 298 298 298 297 297 298 298 298 298 299 299 299 299 299 298 298 299 298 298 299 299 300 299 299 299 299 299 299 299 299 299 299 299 299 299 299 299 299 299 299 299 299 299 298 298 298 298 298 298 298 298 298 298 298
298 298 298 298 298 299 299 300 301 301 301 301 301 301 302 302 300 300 301 302 301 300 300 300 299 299 298 298 298 298 298 298 298 298 298 298 297 298 298 298 298 299 299 299 299 299 299 299 299 299 299 299 299 300 300 299 299 299 299 299 299 299 299 299 299 299 299 299 299 299 299 299 299 299 298 299 299 299 299 298 298 299 298 298 298 298 298
Wind_Speed
15 14 15 15 17 18 19 19 17 16 15 11 4 4 4 3 2 3 4 4 2 5 3 3 2 1 2 1 0 0 2 2 2 2 3 4 3 3 4 4 4 3 2 3 4 4 3 3 2 3 3 2 5 5 3 2 4 4 4 5 4 2 4 6 7 6 3 4 5 4 1 2 5 3 2 4 5 5 6 4 2 4 5 4 6 5 3
14 14 15 15 17 18 18 19 17 16 14 9 6 4 2 4 3 4 5 1 4 4 2 2 2 2 2 1 2 2 2 3 2 2 2 2 2 3 4 3 2 2 2 4 6 4 3 3 1 2 2 3 6 6 3 2 4 3 2 3 5 4 5 6 6 7 7 6 7 6 4 4 3 2 1 3 4 4 5 4 4 6 6 5 6 3 3
14 14 15 16 18 18 18 18 16 19 17 8 7 4 2 4 3 4 4 2 3 1 1 1 0 3 2 2 2 1 2 1 2 3 2 1 2 3 3 2 3 4 4 5 6 4 3 3 1 1 1 3 5 6 5 1 0 2 3 2 6 4 3 4 6 7 7 7 6 5 5 4 3 2 3 4 3 2 4 5 6 7 6 7 6 2 4
13 14 15 16 18 18 18 17 17 20 12 6 9 5 2 4 3 3 4 2 1 1 1 2 1 2 2 2 1 0 1 3 1 3 2 1 2 3 2 3 4 4 4 6 6 4 3 3 3 1 0 3 4 6 5 5 7 9 6 1 4 2 1 1 3 2 2 2 2 3 1 4 4 3 4 5 4 2 4 5 5 3 3 6 4 7 10
13 14 15 16 17 18 17 16 18 16 3 10 5 5 3 2 2 3 3 3 2 2 2 1 0 1 1 1 1 0 0 2 3 2 1 1 1 2 1 2 3 3 4 5 5 3 4 4 2 2 2 2 3 3 4 7 11 11 3 1 1 3 3 2 4 5 5 4 3 4 2 4 4 5 5 6 6 2 3 3 3 4 3 4 3 11 13
13 13 15 16 17 17 17 16 18 14 1 7 2 3 2 1 1 2 1 1 2 2 2 2 2 2 1 0 0 1 1 2 2 1 1 1 1 2 2 1 3 2 3 4 4 3 4 2 1 2 3 2 2 1 4 7 10 8 1 1 2 4 3 1 3 6 9 7 3 4 6 7 7 8 7 7 8 5 3 3 5 6 2 2 4 10 11
13 13 14 16 16 17 17 15 18 14 2 4 4 3 2 0 2 2 2 1 2 3 3 2 2 2 1 1 1 1 2 2 2 1 2 3 1 1 1 1 4 3 1 3 2 2 1 1 4 3 3 3 1 1 3 6 9 8 6 4 4 3 2 4 5 6 7 7 4 2 6 9 9 10 9 7 7 7 7 6 6 6 5 5 8 12 11
13 13 14 16 16 16 16 15 17 14 2 3 4 3 1 1 2 2 1 2 3 4 3 2 3 2 0 1 2 1 1 3 2 0 1 1 1 1 0 2 3 4 4 1 2 5 4 2 3 4 4 3 2 2 1 3 6 7 7 6 6 5 3 7 7 6 5 2 2 0 5 9 11 11 10 8 5 6 6 6 5 4 5 7 9 11 8
12 13 14 16 16 16 16 15 16 13 3 3 4 2 0 2 2 0 3 4 2 2 3 1 2 2 1 1 2 1 1 3 2 0 0 1 2 2 2 3 1 1 3 4 5 6 5 3 2 3 4 4 4 2 2 2 4 4 6 4 7 5 3 7 5 4 5 3 3 3 4 8 11 11 12 10 7 4 5 5 5 4 4 5 6 5 4
12 13 15 16 16 16 17 16 15 11 3 2 4 1 1 0 1 2 3 3 2 2 3 2 2 1 2 1 1 0 2 3 1 1 2 1 2 3 3 3 2 3 2 4 6 5 6 5 1 1 1 3 4 4 6 5 3 3 3 2 4 3 3 6 6 5 6 6 5 3 3 4 4 7 9 9 8 6 3 4 6 7 3 2 2 3 5
12 13 14 15 15 16 16 15 14 11 5 3 4 1 0 1 1 2 3 3 3 2 2 2 1 2 2 1 0 1 1 1 2 1 1 2 2 2 1 2 3 2 1 4 4 5 5 2 1 2 2 3 4 5 8 9 6 4 2 1 3 3 5 5 5 4 6 8 7 3 3 4 2 4 6 6 7 8 5 4 6 7 4 3 5 7 8
12 13 13 14 15 15 16 15 14 12 7 2 4 2 1 2 1 3 3 2 3 3 2 1 3 2 2 1 1 1 2 2 3 4 3 1 1 1 1 2 3 1 3 3 3 3 1 4 5 4 4 4 5 7 10 11 7 3 3 2 3 4 5 4 2 1 5 8 8 5 2 2 3 2 7 6 4 7 6 3 6 6 4 5 7 8 8
12 13 13 14 14 15 16 15 14 12 8 1 2 3 1 1 2 2 2 2 3 2 1 2 4 2 1 0 2 3 3 3 2 3 5 3 2 1 1 2 3 3 3 4 4 4 4 5 6 6 7 7 7 10 14 14 10 6 4 3 5 4 4 2 1 1 4 6 4 3 4 4 3 2 6 7 3 6 5 1 5 7 4 4 7 8 8
12 13 13 13 14 15 16 16 14 12 7 3 1 3 2 1 3 2 1 1 2 2 1 2 4 2 1 1 3 4 3 3 2 3 2 2 2 2 1 2 3 4 3 3 3 4 4 4 4 5 6 7 6 7 9 11 9 7 7 7 7 5 3 3 2 0 1 3 4 4 6 5 4 2 5 5 3 4 4 1 3 6 4 2 6 9 10
12 13 13 12 13 14 15 15 14 11 6 4 2 2 1 2 3 2 1 1 3 4 1 1 1 1 0 1 3 4 2 2 2 3 3 2 2 2 0 3 4 3 3 4 3 3 3 4 6 6 6 6 5 5 6 5 5 4 3 5 7 5 2 2 2 1 1 3 5 4 4 4 5 6 6 5 3 3 3 2 1 4 3 1 6 9 10
11 12 12 11 12 13 14 15 14 10 6 3 3 2 1 0 1 1 1 1 3 3 1 3 3 0 1 1 1 2 1 0 1 2 4 4 3 1 1 2 2 1 3 4 3 3 3 3 4 4 4 4 4 5 5 4 4 5 5 4 5 3 1 2 2 2 1 2 3 3 2 3 5 8 9 8 4 2 3 2 1 3 2 3 6 8 9
12 12 11 11 11 12 13 14 13 11 7 4 3 2 2 1 3 2 1 2 3 3 4 3 0 2 1 2 1 1 2 1 1 2 1 2 2 1 2 3 3 1 2 3 2 3 3 2 2 3 1 2 2 4 4 3 3 4 4 4 7 6 3 0 2 4 3 3 4 4 4 4 7 11 10 7 2 3 4 2 3 4 2 3 6 7 9
12 12 12 11 10 12 13 13 13 11 7 5 5 4 3 2 5 3 1 4 5 5 4 2 2 1 2 3 2 2 2 1 1 2 1 1 1 1 2 1 3 2 2 3 2 2 2 2 1 2 2 3 1 2 3 2 2 3 4 3 5 5 4 3 4 5 5 6 6 4 3 3 9 12 9 6 2 4 2 1 3 5 4 3 6 7 9
11 11 11 11 10 11 13 13 12 11 7 6 6 5 5 5 6 4 2 4 5 6 5 2 3 4 3 1 1 2 0 1 2 2 1 2 1 2 1 0 1 1 1 1 2 2 1 3 1 1 2 4 3 3 3 2 3 4 4 3 4 2 3 5 5 3 3 4 5 5 4 4 11 12 7 5 3 2 2 4 4 6 3 3 5 7 8
11 11 11 10 9 11 12 12 11 10 7 6 6 6 8 10 8 5 4 6 6 7 6 2 2 4 4 2 3 3 1 1 2 3 1 2 2 2 3 3 2 2 1 1 1 0 0 4 3 1 2 4 2 2 5 6 6 5 4 5 4 4 2 4 5 3 2 4 5 4 3 5 14 12 5 5 5 2 3 6 5 3 2 4 5 5 4
11 10 9 9 9 10 12 12 11 9 6 6 6 6 8 12 13 11 9 8 6 6 6 3 4 6 6 6 6 5 4 4 4 4 3 3 2 2 1 3 3 2 2 1 2 1 0 3 4 2 2 2 1 3 6 8 8 7 6 5 5 5 3 4 3 3 2 4 5 3 2 5 10 9 4 4 5 3 3 3 4 5 4 3 5 5 4
11 10 8 8 9 9 11 12 10 8 6 5 5 6 7 10 12 13 12 9 7 7 6 5 5 5 5 6 6 5 5 6 6 5 4 1 1 1 1 2 2 1 1 0 2 3 2 3 4 4 3 3 3 4 5 5 6 7 6 4 5 7 6 6 6 5 6 6 5 3 2 4 6 6 5 5 4 3 3 4 5 6 6 4 6 7 7
11 10 8 8 8 9 10 11 11 9 7 5 6 7 8 9 12 15 14 11 9 8 7 5 5 4 5 5 6 7 6 5 4 4 5 3 1 2 1 2 2 1 0 1 1 3 5 5 4 5 4 4 4 6 7 6 6 7 7 7 7 6 4 4 7 9 10 9 7 6 6 6 7 7 7 7 7 6 6 7 6 6 7 7 7 9 10
11 10 8 7 8 8 10 11 11 10 8 7 8 10 10 11 12 12 10 8 6 6 6 5 4 4 6 6 7 7 8 7 6 3 4 4 2 2 3 2 1 1 3 2 2 1 6 5 3 6 5 3 2 5 8 7 6 6 6 7 8 6 4 4 6 5 5 6 8 8 8 8 8 9 9 10 10 9 8 8 7 8 9 10 10 11 11
10 10 8 7 7 7 8 10 12 12 10 8 8 9 9 9 8 6 4 4 4 3 5 6 6 5 6 7 7 8 9 9 7 4 1 2 3 3 4 3 2 2 4 2 2 2 6 5 4 7 6 3 2 5 7 6 5 5 5 6 6 4 2 5 8 7 5 7 10 10 11 11 10 9 10 10 10 10 10 9 10 11 12 12 13 13 10
10 10 7 6 6 6 6 8 10 13 13 10 9 9 9 9 8 6 5 6 5 3 4 6 6 6 8 10 9 8 8 8 6 5 6 5 6 7 7 5 3 4 4 2 2 4 7 6 5 7 7 5 4 6 7 7 7 7 7 6 3 1 1 4 8 9 8 9 9 9 10 11 11 11 11 11 10 11 11 11 12 13 12 13 13 13 12
9 9 7 6 5 5 5 5 7 10 12 13 12 12 10 9 7 6 4 3 2 3 5 6 5 7 10 12 11 9 9 9 7 8 9 8 7 6 5 5 5 5 5 6 6 6 7 8 8 7 7 6 6 7 7 8 8 8 8 6 3 3 4 4 5 6 6 7 6 5 6 8 8 10 11 11 11 12 12 12 13 12 12 12 12 12 11
9 8 6 6 5 4 3 3 4 6 8 11 13 13 12 10 8 6 4 2 1 2 5 6 4 5 7 9 10 11 12 12 11 12 12 11 9 8 7 6 5 5 6 7 7 7 8 8 7 6 5 4 5 7 7 7 8 8 8 8 6 5 5 4 4 6 7 7 7 6 7 8 8 9 10 10 10 11 11 12 12 11 11 11 11 11 9
8 7 6 5 5 3 2 2 3 2 4 6 7 7 9 10 9 7 7 6 5 3 5 6 4 4 3 5 8 10 13 14 15 15 14 14 13 12 11 9 7 6 7 7 7 8 8 6 5 5 3 2 1 6 7 6 8 9 9 10 9 7 7 8 8 8 8 8 8 7 8 9 8 8 9 9 9 9 10 10 11 10 10 10 10 10 9
7 6 5 5 4 3 2 2 2 2 2 2 1 2 4 5 7 7 7 8 6 2 3 5 5 4 2 3 6 10 12 13 15 17 16 14 13 12 11 10 8 6 7 7 7 7 7 5 4 4 2 4 1 6 7 6 8 9 9 10 10 9 9 9 7 7 8 8 7 8 9 9 8 8 8 8 9 9 9 9 9 10 10 11 10 9 10
7 6 5 4 4 3 3 3 3 3 2 1 3 3 4 4 3 4 4 7 5 2 3 5 5 4 3 2 5 9 9 9 11 13 12 11 11 12 12 10 8 7 7 7 7 6 6 5 4 4 2 4 3 5 7 7 8 9 9 9 9 9 9 9 8 9 9 8 8 9 9 7 6 7 8 7 8 9 9 8 8 7 7 9 10 10 9
6 5 4 3 3 3 4 4 4 5 5 4 2 3 4 4 3 3 4 6 4 2 3 5 4 3 3 3 4 7 7 4 5 7 8 8 8 10 11 9 7 7 7 5 6 5 5 5 6 6 4 4 3 5 8 7 8 9 9 8 8 8 8 9 9 9 9 7 7 8 8 5 5 6 7 5 6 8 9 9 8 7 6 8 10 10 9
5 4 3 2 2 4 5 6 7 8 9 8 9 8 7 5 5 5 5 6 3 1 1 2 4 4 2 2 2 6 6 2 3 5 6 6 4 4 6 7 6 6 7 5 4 4 3 5 8 7 4 3 3 7 8 8 9 9 8 8 7 7 8 8 7 7 7 5 3 4 6 7 6 7 8 7 6 7 7 8 8 8 7 8 8 9 9
4 2 2 2 4 5 6 8 9 8 6 5 6 6 5 5 6 5 5 5 3 2 2 1 3 5 3 3 3 5 7 3 3 5 5 4 4 2 5 5 5 5 5 5 4 5 4 5 6 6 5 5 6 7 7 8 9 9 8 8 7 6 6 7 6 6 6 5 4 5 7 8 7 7 8 7 6 6 6 6 7 6 6 6 6 7 7
2 1 1 3 6 8 8 8 7 5 3 4 4 3 4 7 7 6 5 3 1 2 3 1 2 5 4 4 4 4 5 3 3 4 4 4 4 3 4 5 5 5 3 3 3 6 5 3 2 4 5 5 6 6 7 8 9 8 7 7 5 5 5 6 6 6 5 5 5 6 7 6 6 6 5 5 5 5 5 5 5 4 4 4 4 5 5
1 0 3 7 10 9 7 5 3 2 2 4 4 4 6 9 9 9 8 6 3 2 3 2 2 3 3 4 5 2 2 2 4 2 2 3 3 3 3 5 6 3 1 1 5 7 4 2 0 4 6 5 5 6 6 6 8 7 6 6 4 3 4 5 4 5 5 5 5 5 5 4 4 4 4 4 4 4 3 3 3 3 2 2 2 3 3
2 4 8 10 9 6 4 3 2 1 3 6 7 6 6 6 5 5 5 4 5 4 1 2 3 2 1 3 4 1 1 2 3 2 2 3 3 2 3 4 4 1 1 4 6 5 2 1 1 5 6 5 5 6 5 5 6 6 6 6 4 2 2 3 3 3 5 5 5 4 3 3 3 3 3 3 3 3 3 3 3 2 1 1 2 2 3
5 8 8 7 5 3 3 3 3 5 7 8 6 4 3 1 2 3 2 1 2 2 2 1 4 2 1 3 3 1 1 1 3 2 2 2 1 1 2 3 2 1 3 5 4 1 1 3 4 6 7 6 5 6 5 5 5 5 5 5 5 4 3 4 3 2 2 3 3 2 1 1 2 2 3 3 3 3 3 3 3 2 2 2 1 2 3
8 7 5 4 3 2 3 5 7 7 7 4 2 1 1 0 1 3 1 1 1 1 0 1 3 2 1 4 4 2 2 1 3 4 3 1 1 1 2 2 1 1 4 5 2 1 2 4 4 5 6 6 6 6 5 5 6 5 5 5 5 5 5 4 3 2 3 2 2 2 1 1 1 0 1 2 3 3 3 4 4 4 3 3 2 2 3
8 5 4 3 2 4 6 8 8 5 3 1 1 1 1 1 0 1 2 2 2 2 1 1 3 1 2 1 4 3 2 2 0 3 4 3 1 0 2 3 1 1 4 5 2 1 2 4 4 5 6 6 7 6 6 6 6 6 5 5 6 5 5 4 4 4 3 2 2 2 2 2 2 1 1 1 2 2 2 2 3 4 4 3 2 2 3
5 3 3 4 6 7 8 8 5 1 0 1 1 1 1 2 1 0 2 3 3 3 1 1 4 3 1 0 3 4 2 2 2 2 3 3 1 0 2 3 1 1 3 4 2 1 3 4 4 4 6 7 8 7 6 6 6 6 5 6 5 5 4 5 5 4 3 3 4 4 4 4 2 1 1 1 1 1 2 2 2 2 3 3 2 2 3
5 6 8 10 10 10 7 4 2 0 0 1 1 1 1 2 2 2 2 1 2 3 2 1 2 4 3 2 2 3 2 1 1 0 2 2 1 0 2 3 1 1 3 3 2 3 3 4 4 5 7 8 8 7 6 6 6 6 6 6 5 4 4 5 6 6 5 5 6 6 5 5 4 3 3 2 2 3 4 3 2 2 3 3 3 3 3
12 13 12 10 7 4 2 1 1 1 0 1 2 2 2 2 2 2 2 1 1 2 2 2 2 4 3 1 2 3 2 0 1 1 2 2 1 1 2 2 1 1 3 2 3 3 4 4 4 6 8 8 8 7 6 6 6 5 6 6 5 5 5 5 6 6 6 5 5 5 4 4 3 3 2 2 1 1 2 1 1 2 2 3 4 4 4
12 9 6 4 3 1 1 1 1 0 1 1 2 2 3 4 3 3 3 3 3 4 4 4 4 5 3 1 1 2 2 1 0 1 2 2 1 1 2 2 2 2 2 3 3 3 3 2 3 7 9 8 7 7 7 6 5 5 5 5 5 5 5 5 4 4 4 4 3 2 2 2 2 1 0 1 2 2 1 1 1 1 1 2 3 4 4
6 4 3 3 2 1 1 1 1 1 2 2 2 3 4 5 5 4 3 3 4 5 5 5 5 5 4 2 1 1 1 1 1 2 1 2 2 2 2 2 2 2 3 3 3 3 3 3 4 7 10 10 8 7 7 6 5 4 4 5 5 4 4 3 3 2 3 3 2 2 2 2 2 2 1 1 1 2 2 2 2 3 3 3 3 3 4
2 2 3 3 1 2 1 2 2 2 2 2 2 3 2 2 4 4 3 2 4 6 6 5 5 5 5 2 1 1 2 2 2 2 0 1 2 3 2 1 2 2 2 3 3 4 4 5 6 8 10 10 9 8 7 6 5 4 4 4 4 3 3 2 1 2 2 2 1 1 1 2 2 2 1 1 0 1 2 2 1 2 3 4 3 3 4
2 1 1 2 2 1 2 1 1 1 1 1 1 0 1 3 5 5 3 2 5 7 6 4 4 5 4 2 1 2 2 2 2 2 0 1 3 3 1 2 2 2 2 4 4 4 3 5 7 8 9 10 9 8 7 6 6 5 3 3 3 3 2 1 1 1 2 2 2 2 1 1 1 1 1 1 1 1 1 1 1 1 2 3 3 3 4
2 1 1 1 3 2 2 2 2 1 1 1 1 1 2 3 5 5 3 2 5 7 7 5 5 5 3 1 1 3 3 3 2 2 0 1 3 3 2 2 2 2 2 3 3 3 4 6 8 8 9 9 8 8 7 6 6 5 4 3 3 2 1 1 1 2 2 2 2 1 0 1 1 1 2 2 2 2 2 2 2 2 3 3 3 3 4
2 1 0 1 2 1 1 2 2 2 2 2 2 2 3 4 5 5 4 4 5 5 4 3 3 4 3 2 2 3 3 2 2 2 2 2 2 2 2 2 3 3 3 2 2 3 6 8 8 9 9 8 7 6 6 6 6 5 4 4 3 2 1 1 1 2 2 2 2 2 1 1 2 3 3 4 4 3 3 3 4 4 4 4 5 5 5
1 1 1 1 1 2 3 2 3 4 4 3 3 4 4 5 6 5 3 4 5 5 4 3 3 2 2 2 2 3 3 1 2 3 3 3 2 2 2 3 3 3 3 3 3 5 7 8 8 8 8 8 7 6 5 6 6 6 5 4 3 2 1 1 1 1 1 1 2 2 3 3 3 3 4 5 5 4 4 4 5 5 5 5 6 6 7
0 1 1 0 0 2 3 3 3 5 5 5 5 5 4 6 7 5 3 4 6 6 4 3 3 2 2 2 2 2 2 2 2 3 3 2 2 3 3 3 3 3 4 5 6 6 7 7 7 7 7 7 6 5 5 6 6 6 5 4 3 2 2 2 1 1 1 1 1 2 3 3 3 3 4 4 4 5 5 5 4 4 5 5 6 6 7
1 2 2 1 0 1 2 1 2 4 5 5 5 4 3 5 6 4 3 4 5 4 3 3 2 2 3 2 2 2 2 2 2 2 2 2 2 2 2 2 4 5 6 7 7 6 6 6 6 6 7 6 6 6 6 6 6 6 6 5 4 3 2 2 1 1 1 2 2 2 3 3 3 2 3 4 4 5 5 4 3 3 4 5 5 5 6
Wind_Direction
338 334 333 334 333 332 333 333 332 330 331 332 312 276 254 196 129 89 127 149 259 264 192 141 206 185 85 20 258 245 270 250 239 227 216 231 233 224 249 265 255 259 294 308 318 328 300 279 268 240 214 101 48 22 351 249 206 211 214 179 148 159 227 231 227 228 216 138 136 140 128 236 223 215 279 281 260 255 262 272 276 242 226 226 246 237 128
339 335 336 336 335 334 334 333 332 330 322 303 271 266 210 152 107 116 143 187 284 266 181 159 177 108 101 157 147 160 253 260 255 252 225 221 239 239 248 253 259 282 301 292 302 324 300 267 332 301 221 100 42 20 16 246 219 207 232 189 166 185 218 222 220 214 201 192 191 185 190 215 207 131 48 330 299 275 271 268 263 257 238 230 252 247 109
338 338 339 338 337 337 336 337 337 330 317 265 219 250 204 155 129 130 148 214 266 267 18 339 79 106 129 143 106 150 194 204 281 288 263 253 279 267 262 280 288 287 282 274 278 283 265 257 316 316 188 98 51 29 33 20 237 23 11 172 178 202 226 217 230 225 208 207 211 208 199 184 151 95 69 23 354 277 262 248 237 241 221 215 243 228 124
340 342 340 339 340 339 339 343 340 334 331 178 189 262 253 173 160 146 149 176 226 96 42 299 274 124 153 154 101 354 168 142 188 267 231 208 287 275 280 304 283 271 280 272 259 246 232 249 280 303 76 88 60 34 45 67 42 13 356 148 163 184 156 342 299 275 243 275 339 353 297 166 147 92 67 39 18 329 274 253 246 263 228 221 215 135 135
342 342 340 340 342 341 343 348 344 341 35 144 182 270 243 203 181 156 160 169 175 163 166 211 51 112 208 219 94 31 218 144 157 224 236 91 316 256 252 320 291 269 289 274 256 254 229 229 280 330 1 79 98 62 72 67 28 3 326 197 161 182 160 25 15 40 29 6 22 21 31 112 103 68 54 37 26 356 263 255 314 326 272 234 156 130 134
341 341 341 341 343 344 346 351 349 342 156 156 258 254 197 266 131 107 340 223 165 154 140 123 104 120 158 289 71 116 120 133 148 168 200 178 281 249 204 340 337 323 304 273 255 261 232 205 11 356 6 40 134 105 66 50 24 13 40 308 280 208 176 70 54 48 27 15 38 73 83 86 77 64 52 38 37 41 53 42 360 338 304 223 144 124 114
342 341 342 344 345 348 349 353 352 342 271 196 274 248 167 132 129 100 333 307 101 84 88 122 146 118 95 165 146 75 80 90 105 131 202 178 108 320 221 47 17 25 343 257 264 329 275 106 52 24 6 17 38 61 29 10 10 27 40 5 305 248 171 135 128 81 38 9 354 63 106 97 76 59 48 41 47 53 57 47 21 21 49 71 96 96 83
344 342 344 347 347 350 352 356 354 347 329 200 263 259 193 200 134 125 166 128 93 100 119 192 181 139 216 187 117 52 51 74 75 51 259 158 114 341 53 59 24 38 57 73 74 46 16 18 38 0 338 9 40 90 126 315 342 25 39 7 305 272 170 136 135 120 96 41 324 139 111 99 87 65 44 39 52 58 53 40 21 39 70 82 98 97 82
344 344 345 349 351 352 355 357 355 352 2 206 256 252 187 336 13 240 187 135 110 154 150 222 219 156 193 194 111 91 42 45 37 140 95 22 54 46 31 33 9 114 78 68 74 55 5 336 352 335 340 15 16 34 86 331 327 35 48 353 300 287 159 147 172 173 142 146 170 152 119 106 92 62 34 26 31 37 45 40 14 15 79 116 133 123 107
345 346 348 351 353 354 356 358 356 357 7 252 270 223 148 216 128 246 237 140 145 210 156 186 236 122 88 60 75 27 39 37 348 189 151 131 58 49 15 356 310 229 174 71 54 19 337 322 298 285 9 49 49 67 75 55 36 62 49 309 286 283 173 171 197 193 158 157 165 151 176 171 107 45 9 3 9 10 27 59 30 11 22 119 138 104 113
346 349 351 352 355 356 357 359 358 358 0 278 282 313 154 255 185 200 224 166 152 206 192 191 226 105 112 106 145 289 350 6 328 326 146 141 68 37 352 328 315 275 98 51 17 339 331 332 168 168 151 117 100 100 90 77 75 91 96 298 292 258 216 195 202 199 158 152 159 167 212 212 148 32 354 348 1 3 10 47 31 13 12 42 73 99 115
349 350 351 354 356 358 359 1 1 358 356 287 270 299 328 304 280 205 214 175 144 189 225 94 74 104 138 147 250 279 313 334 341 326 305 311 14 6 269 303 320 27 56 3 304 283 146 141 152 155 155 147 122 99 83 71 67 103 171 226 273 249 213 195 203 176 139 152 175 185 179 165 156 55 13 6 353 358 8 43 36 25 40 69 92 111 111
350 350 351 354 357 359 1 2 2 359 358 350 261 283 284 274 274 237 231 205 149 171 226 108 115 144 150 200 288 297 304 304 303 289 278 274 282 273 242 301 334 25 12 318 280 238 192 160 155 153 157 155 127 93 76 65 50 33 16 313 281 249 201 169 75 68 144 169 191 172 116 100 145 146 19 12 346 349 356 66 52 31 24 79 107 115 110
352 351 352 355 358 1 2 1 4 5 8 30 277 281 272 262 282 272 231 224 130 112 256 164 151 173 183 325 298 288 266 248 238 231 229 234 264 285 347 348 350 354 317 281 240 219 202 176 171 166 166 172 158 117 91 76 59 40 24 350 306 265 215 166 149 10 168 135 89 107 134 107 80 54 23 15 342 339 333 287 54 28 0 69 122 126 123
352 351 352 356 1 6 5 4 9 14 19 47 53 353 306 254 275 294 282 231 144 136 210 302 88 138 221 25 323 296 244 204 209 196 171 179 241 245 27 5 353 331 261 240 217 204 196 199 201 189 182 192 188 163 138 111 90 83 51 342 308 277 242 202 178 210 249 149 117 127 160 111 45 16 11 4 323 298 284 257 33 29 11 90 134 134 132
350 351 353 357 4 10 10 10 14 20 32 65 73 13 347 168 195 265 279 188 154 141 93 36 38 333 199 116 24 334 327 345 285 220 181 176 192 176 88 43 20 328 244 236 211 186 184 206 224 211 192 189 176 156 145 132 115 98 74 8 336 333 250 226 171 147 200 181 132 88 80 72 21 355 352 350 329 236 218 225 56 48 58 142 142 140 143
349 351 354 360 8 12 14 15 17 24 38 68 89 41 351 81 151 200 232 125 112 95 77 60 249 218 173 115 114 7 343 341 293 268 214 148 146 129 102 116 118 122 248 233 179 168 169 174 246 242 169 95 150 153 127 99 103 82 49 24 13 14 17 79 117 111 94 86 87 72 71 52 2 347 344 343 329 205 219 214 63 32 17 157 151 150 154
349 351 355 1 9 12 15 18 19 24 41 68 81 58 17 79 128 147 155 125 110 93 83 34 338 80 70 39 59 53 344 331 282 260 247 132 130 38 29 106 135 130 244 223 154 132 145 138 232 240 127 64 23 135 103 49 64 40 9 36 50 23 14 41 72 90 88 92 100 92 86 34 351 343 344 345 300 217 231 33 20 339 326 157 152 157 159
349 352 356 3 10 13 17 21 23 29 42 66 80 64 44 82 122 151 147 124 110 99 101 58 18 70 77 4 51 90 309 300 325 300 216 143 85 15 8 330 120 85 316 232 127 115 149 130 90 324 111 94 60 81 82 51 60 35 4 55 82 17 12 53 55 52 70 100 109 108 108 39 350 338 339 351 324 232 3 359 325 312 312 148 148 155 159
349 353 359 5 11 17 21 24 28 33 48 76 96 89 68 79 104 122 108 111 116 105 101 87 53 79 74 23 26 38 5 320 350 338 350 62 24 278 198 156 131 132 147 134 108 59 160 128 119 16 87 95 78 95 98 85 74 54 39 68 56 340 332 83 59 20 49 93 88 89 100 20 354 345 351 12 3 356 342 332 331 1 62 126 135 142 146
350 354 1 9 17 21 25 29 31 34 49 83 107 99 75 81 97 105 101 106 115 107 98 88 72 67 56 40 28 9 343 338 339 334 348 41 21 285 236 112 119 166 165 131 124 126 133 118 110 88 78 86 123 151 123 105 85 57 40 64 52 3 7 92 59 350 10 71 69 58 27 356 357 1 16 13 353 332 315 327 16 38 51 92 96 86 86
351 356 2 13 23 26 28 31 34 39 55 88 109 100 84 87 101 107 100 89 85 93 105 111 95 75 66 56 32 2 338 325 317 305 302 337 67 351 359 77 100 91 10 53 134 134 146 127 106 100 95 82 92 111 106 103 95 65 31 34 58 42 41 72 74 55 59 70 76 77 48 12 15 23 24 20 19 19 35 64 62 42 34 56 82 86 90
351 356 4 16 27 31 34 37 38 45 61 86 104 102 95 96 103 107 102 94 93 99 105 118 124 103 79 54 24 6 357 340 315 286 276 291 44 74 54 64 79 82 356 314 357 104 114 116 110 108 95 63 65 91 86 76 84 80 59 59 77 68 44 68 92 95 89 79 74 77 70 52 46 45 38 38 46 58 72 79 74 58 50 54 75 90 92
354 358 4 20 30 34 40 45 47 53 66 87 104 109 109 110 115 117 111 108 117 111 91 77 67 53 39 25 12 7 7 0 348 316 261 262 293 66 78 53 22 115 98 36 323 85 101 98 101 102 89 33 19 90 93 84 79 83 87 89 87 81 64 80 102 118 110 83 72 71 71 66 60 60 58 54 55 61 69 72 73 73 70 66 73 84 87
356 358 2 20 33 40 50 54 56 61 69 82 103 108 103 108 123 129 113 112 127 118 95 80 57 35 27 25 22 15 10 4 0 13 42 275 318 29 82 67 359 42 86 72 278 127 100 96 104 100 86 29 11 77 90 88 74 72 88 94 83 65 45 74 84 88 93 94 92 85 76 69 64 62 62 62 66 72 76 79 82 82 78 74 75 77 76
354 356 3 21 32 43 58 62 63 67 71 78 95 104 96 95 108 109 98 103 107 92 97 96 75 55 54 50 36 15 8 9 14 39 63 62 50 69 99 106 80 78 90 77 59 87 92 91 94 94 84 59 56 79 84 82 77 76 75 67 51 35 100 98 96 96 98 106 112 108 91 76 69 68 68 69 76 85 92 94 92 89 86 81 77 75 74
351 354 4 19 28 44 65 74 73 71 72 77 84 91 91 91 98 100 95 105 116 106 109 108 91 75 68 57 41 26 23 31 50 65 70 71 71 78 91 95 93 101 102 87 78 81 86 83 77 80 89 84 74 78 84 80 80 81 70 48 43 87 98 111 118 107 98 104 113 110 97 86 78 77 77 78 83 91 97 100 101 100 101 99 94 88 82
346 350 1 12 21 44 66 86 86 76 78 82 82 82 81 78 79 87 84 44 347 111 113 109 112 112 84 50 34 38 42 45 59 70 72 74 73 70 67 67 75 86 86 87 90 86 84 87 86 85 94 94 81 85 93 85 75 71 60 48 49 52 39 43 85 89 87 97 100 94 97 101 98 91 87 87 90 93 96 100 106 112 117 117 115 110 100
341 346 356 6 19 46 77 103 110 99 90 88 85 82 79 69 59 66 90 96 88 105 119 111 105 113 87 25 26 44 50 53 61 67 69 71 70 69 69 67 65 70 78 84 90 90 83 77 79 80 60 339 62 98 98 86 76 71 65 62 61 51 40 49 73 88 95 98 98 99 103 105 103 99 94 93 94 94 96 103 112 120 126 126 122 122 124
339 345 351 0 19 50 87 107 119 135 117 97 134 165 127 86 51 49 91 112 109 110 128 113 99 93 79 19 26 40 45 53 60 60 59 61 62 63 68 69 63 66 81 83 79 87 94 80 69 79 36 324 5 106 100 88 86 80 71 71 72 70 65 56 56 79 97 99 96 98 102 104 106 104 97 92 91 92 95 102 107 113 121 127 128 132 135
333 340 347 3 28 62 97 106 114 125 107 337 267 212 151 120 62 45 93 118 119 114 109 107 111 117 111 66 24 24 30 44 55 54 51 54 59 62 62 63 61 58 72 85 77 72 88 87 82 100 76 340 355 96 99 93 95 88 77 75 74 72 74 70 65 79 97 108 107 102 100 104 112 108 98 90 90 95 99 102 104 108 118 125 128 132 137
330 336 348 12 43 89 105 102 109 110 89 65 61 77 84 92 81 69 102 117 121 131 115 108 120 125 108 91 42 15 8 31 66 61 51 46 57 66 61 59 64 53 45 73 86 68 66 80 85 92 75 340 353 95 95 86 90 90 85 84 79 75 81 83 81 87 95 102 112 114 111 104 100 102 101 93 89 97 102 105 110 119 123 120 122 127 134
325 331 348 26 89 119 114 109 116 112 96 86 82 74 71 84 87 85 106 112 99 20 31 97 121 112 100 134 83 19 354 350 101 79 56 30 23 65 70 64 72 54 24 32 82 81 72 94 95 88 66 21 64 91 85 81 91 95 90 87 85 85 89 91 90 90 85 74 77 120 122 116 112 114 118 114 103 103 106 107 111 120 124 122 125 133 137
316 329 1 72 123 131 121 117 120 115 101 90 84 69 63 79 82 83 102 110 103 80 44 44 125 114 111 171 130 28 358 355 86 77 66 32 357 41 91 78 72 61 32 29 83 100 91 93 98 95 82 73 81 89 89 92 99 100 96 93 93 97 104 103 93 81 72 60 61 92 111 119 125 128 127 124 119 118 120 115 112 117 121 120 127 139 146
295 318 52 126 132 130 123 119 120 120 110 96 92 85 88 91 86 84 89 92 178 149 117 57 147 133 132 142 121 45 355 10 66 57 67 64 27 33 82 86 74 63 26 1 84 99 87 59 81 104 97 85 83 89 97 102 103 100 97 95 95 99 102 99 89 79 70 66 80 101 115 125 130 135 139 138 134 135 136 129 122 120 116 113 127 148 158
255 200 134 132 128 124 122 116 108 120 125 109 107 115 113 103 90 80 77 62 37 80 127 164 160 141 135 121 110 70 333 83 93 61 73 99 68 34 61 89 80 62 350 33 90 92 77 331 309 113 108 97 87 86 86 92 92 88 81 78 77 82 81 78 82 92 87 80 87 103 117 123 124 137 147 143 143 153 162 156 145 133 112 106 128 161 176
197 142 133 132 130 128 127 111 80 88 120 121 120 117 109 105 99 85 76 58 35 28 23 173 125 90 82 103 105 113 255 136 121 100 82 95 81 40 53 84 88 90 124 91 81 73 52 354 105 105 97 88 86 84 77 77 79 72 64 62 58 53 81 87 97 112 111 110 112 114 124 136 137 146 164 171 172 184 196 192 177 166 154 134 146 185 204
153 138 135 145 157 152 127 117 127 133 128 127 129 118 90 86 149 115 87 44 37 18 336 101 106 100 141 114 97 42 320 141 144 129 92 83 95 90 75 75 79 156 118 92 73 13 60 81 94 101 97 95 97 93 85 83 81 70 61 59 50 46 80 107 124 130 120 123 118 108 130 164 144 154 192 201 196 204 223 230 214 201 211 219 202 203 203
146 142 154 178 177 124 106 127 141 138 129 129 151 130 93 245 176 129 95 350 113 107 340 94 108 109 139 119 106 55 351 183 159 144 120 81 63 119 121 101 98 170 135 115 117 235 137 106 111 121 121 122 118 107 102 103 96 83 70 67 61 60 73 83 71 34 8 1 13 15 344 333 5 4 224 218 218 224 233 232 221 216 219 225 229 232 223
153 157 169 163 116 94 114 132 139 141 143 163 190 114 115 124 108 123 150 170 138 107 32 83 108 64 342 116 124 103 10 327 174 129 117 93 31 39 129 109 103 176 143 122 122 232 151 128 136 143 140 136 130 123 116 111 102 92 83 77 72 67 68 67 58 42 19 13 33 41 35 35 22 356 324 269 245 240 236 227 216 208 202 198 212 244 242
174 177 152 124 114 117 124 128 128 130 206 152 100 63 98 106 75 99 183 173 138 106 58 166 148 135 75 31 121 114 76 353 352 79 103 88 25 269 122 105 114 209 132 114 133 195 147 139 153 153 141 135 135 134 129 118 109 101 92 85 79 77 78 78 71 61 59 80 87 80 69 60 46 19 17 15 18 85 94 114 154 169 179 187 195 215 220
158 134 120 117 120 125 128 126 112 68 205 129 88 55 84 123 144 181 194 172 124 127 139 172 133 119 104 62 65 83 81 348 304 196 119 96 35 318 110 115 176 191 111 107 167 179 149 151 164 151 136 134 138 142 136 124 115 106 94 86 84 84 84 85 81 74 70 75 79 74 66 58 56 60 63 52 60 82 88 99 129 154 178 189 190 196 201
133 125 122 123 125 132 146 137 86 57 105 128 112 119 153 168 173 170 151 120 122 144 134 110 102 111 109 70 59 78 83 33 307 48 96 102 118 157 124 129 159 119 102 135 188 176 158 169 170 150 140 141 145 145 137 123 117 113 103 95 95 95 89 86 86 81 75 72 69 65 62 59 60 68 70 49 31 57 74 98 136 161 192 201 203 206 199
131 126 128 128 121 121 183 136 114 265 195 170 173 173 167 169 181 179 159 154 158 148 141 153 163 150 130 106 90 101 112 157 158 77 90 121 140 134 126 123 107 102 138 176 181 154 143 154 148 140 141 145 147 147 142 135 130 125 115 109 114 117 109 98 92 83 76 73 64 50 39 35 30 37 43 353 328 318 305 246 193 223 238 217 206 202 191
146 150 145 125 93 318 262 132 171 231 203 183 195 190 171 170 175 166 140 134 147 145 144 155 161 141 120 112 134 125 129 148 129 97 119 147 128 80 82 109 117 137 168 171 164 160 165 161 146 142 146 149 151 152 149 141 135 131 128 127 129 122 108 93 81 66 62 63 53 32 17 3 345 328 323 348 349 339 326 301 257 251 250 237 216 196 185
168 143 139 124 58 311 233 147 168 204 194 176 184 192 185 162 148 127 107 122 143 142 140 144 142 132 126 125 120 114 126 131 111 84 193 174 121 82 66 129 146 160 172 168 176 187 174 155 151 151 150 150 152 153 150 144 142 144 143 135 129 120 105 87 59 31 29 26 6 341 7 8 1 354 349 357 49 28 13 8 333 268 255 248 236 215 200
143 119 164 142 121 162 212 189 148 141 143 144 150 106 56 84 98 95 94 138 140 128 121 117 110 109 109 112 125 127 126 116 103 86 305 167 114 102 148 199 172 167 175 180 190 191 157 136 141 146 146 148 153 155 152 151 155 158 150 132 128 130 122 94 29 1 1 349 316 281 259 300 339 344 336 316 303 316 337 356 1 316 277 261 248 233 227
142 143 273 155 136 161 192 169 129 108 97 87 74 75 97 125 123 110 102 126 136 132 133 135 127 116 111 116 140 129 121 115 110 103 76 122 124 134 177 183 165 179 204 197 189 173 145 134 137 140 143 149 156 156 154 156 161 164 160 150 144 142 116 58 19 10 6 346 322 304 269 263 273 283 290 288 288 287 281 275 276 279 275 271 267 257 252
112 113 102 128 134 141 138 144 153 145 123 104 119 144 150 139 122 112 116 135 135 124 120 127 135 131 124 121 131 130 130 132 131 135 153 168 158 156 174 171 168 184 199 192 156 131 127 130 135 141 147 153 156 155 154 157 161 164 164 157 147 133 87 51 35 25 8 339 331 347 349 297 273 268 274 280 286 289 281 268 262 263 266 268 270 269 268
60 103 129 142 158 144 144 172 182 153 135 135 152 156 146 128 119 120 133 140 131 122 116 115 112 108 116 137 147 140 129 121 138 155 167 173 159 152 174 187 184 179 170 154 135 126 127 132 138 143 147 151 155 153 150 153 160 166 167 161 152 137 97 79 73 64 61 36 1 344 320 299 292 290 291 294 298 294 277 259 254 257 260 263 269 274 275
141 165 132 53 218 149 153 175 170 149 147 151 148 140 135 132 131 133 146 149 147 153 157 143 119 118 139 152 148 136 129 137 165 171 168 157 155 174 188 186 168 145 132 128 128 131 133 137 143 146 146 148 152 154 155 158 163 167 168 165 159 148 130 123 115 87 70 44 342 323 316 315 316 311 304 300 293 281 269 255 245 248 255 261 268 274 276
176 151 116 87 193 167 163 165 136 130 134 134 127 124 126 125 123 131 173 181 170 162 148 136 145 163 158 142 128 133 138 147 171 175 160 149 172 199 186 124 122 129 130 128 129 134 133 129 126 133 142 148 151 153 156 160 163 167 171 170 164 154 145 142 132 53 345 322 321 330 332 328 318 297 282 277 274 271 269 259 234 237 257 268 271 273 274